Location: Table Mountain
(47.2500°N, 120.5778°W)
Time: 19:17:49
(UTC-07:00)

UKube-1 - Visible Passes

Search period start: 17 October 2019 00:00
Search period end: 27 October 2019 00:00
Orbit: 613 x 619 km, 98.4° (Epoch: 17 October)

Date Brightness Start Highest point End Pass type
(mag) Time Alt. Az. Time Alt. Az. Time Alt. Az.
17 Oct ? 04:00:55 10° ESE 04:03:45 17° ENE 04:06:35 10° NNE visible
17 Oct ? 05:35:03 10° S 05:39:18 58° WSW 05:43:34 10° NNW visible
17 Oct ? 18:54:25 10° N 18:58:35 51° WNW 19:02:44 10° SW visible
18 Oct ? 04:16:16 10° ESE 04:19:41 24° ENE 04:23:07 10° N visible
18 Oct ? 05:51:25 10° SSW 05:55:28 39° W 05:59:32 10° NNW visible
18 Oct ? 19:10:41 10° N 19:14:37 36° WNW 19:18:32 10° SW visible
19 Oct ? 04:31:51 10° SE 04:35:41 32° ENE 04:39:32 10° N visible
19 Oct ? 06:07:57 10° SSW 06:11:40 28° W 06:15:23 10° NW visible
19 Oct ? 19:27:04 10° N 19:30:37 26° WNW 19:34:10 10° WSW visible
20 Oct ? 04:47:35 10° SE 04:51:42 45° ENE 04:55:50 10° N visible
20 Oct ? 06:24:45 10° SW 06:27:54 20° W 06:31:04 10° NW visible
20 Oct ? 19:43:33 10° NNW 19:46:34 19° WNW 19:49:36 10° WSW visible
21 Oct ? 05:03:29 10° SSE 05:07:45 66° ENE 05:12:02 10° N visible
21 Oct ? 06:41:56 10° WSW 06:44:10 14° W 06:46:25 10° WNW visible
21 Oct ? 20:00:16 10° NNW 20:02:30 14° WNW 20:04:43 10° W visible
22 Oct ? 03:46:42 10° E 03:48:30 12° ENE 03:50:19 10° NNE visible
22 Oct ? 05:19:31 10° SSE 05:23:51 86° W 05:28:10 10° NNW visible
22 Oct ? 18:38:53 10° N 18:43:11 76° WNW 18:47:28 10° SSW visible
22 Oct ? 20:18:00 10° NW 20:18:23 10° NW 20:18:46 10° WNW visible
23 Oct ? 04:01:38 10° E 04:04:25 17° ENE 04:07:12 10° NNE visible
23 Oct ? 05:35:43 10° S 05:39:57 59° WSW 05:44:14 10° NNW visible
23 Oct ? 18:55:04 10° N 18:59:15 52° WNW 19:03:24 10° SSW visible
24 Oct ? 04:16:58 10° ESE 04:20:22 23° ENE 04:23:46 10° NNE visible
24 Oct ? 05:52:04 10° S 05:56:07 40° W 06:00:13 10° NNW visible
24 Oct ? 19:11:20 10° N 19:15:17 36° WNW 19:19:13 10° SW visible
25 Oct ? 04:32:32 10° SE 04:36:21 31° ENE 04:40:10 10° N visible
25 Oct ? 06:08:35 10° SSW 06:12:19 28° W 06:16:03 10° NW visible
25 Oct ? 19:27:41 10° N 19:31:17 26° WNW 19:34:51 10° WSW visible
26 Oct ? 04:48:16 10° SE 04:52:21 44° ENE 04:56:28 10° N visible
26 Oct ? 06:25:21 10° SW 06:28:32 20° W 06:31:45 10° NW visible
26 Oct ? 19:44:10 10° NNW 19:47:14 19° WNW 19:50:18 10° WSW visible
